User: anonymous
Location: Unspecified
(0.0000°N, 0.0000°E)
Time: 20:49:59
(UTC+02:00)
Language:

Cosmos 2219 - Orbit

View from above orbital plane
View from above orbital plane
View from above satellite
View from above satellite

Ground track
Ground track

The orbit data is extracted from the following two-line orbital elements,

1 22219U 92076A   14244.08281571 -.00000103  00000-0 -29541-4 0  5859
2 22219 071.0593 168.4350 0017325 152.0594 299.1454 14.13482703124064
Epoch (UTC): 01 September 2014 01:59:15
Eccentricity: 0.0017325
inclination: 71.0593°
perigee height: 835 km
apogee height: 860 km
right ascension of ascending node: 168.4350°
argument of perigee: 152.0594°
revolutions per day: 14.13482703
mean anomaly at epoch: 299.1454°
orbit number at epoch: 12406

The dashed part of the orbit path shows where the satellite is in the earth's shadow,  

DLR